KLE YSHL-YSCB

Flight info

Callsign KLE
Flight time N/A
Altitude 6500
Route DCT
Aircraft P28A/L-S/LB1

Departure

Time 2026-04-24 10:37
Airport Shellharbour Airport (YSHL)

Arrival

Time N/A
Airport Canberra Airport (YSCB)
Time Latitude Longitude Altitude Speed Heading
2026-04-24 10:31 -34.55863 150.78891 30 ft 0 kts 352°
2026-04-24 10:33 -34.55847 150.78877 30 ft 8 kts 285°
2026-04-24 10:33 -34.55842 150.78820 30 ft 6 kts 348°
2026-04-24 10:34 -34.55795 150.78810 31 ft 8 kts 350°
2026-04-24 10:34 -34.55732 150.78794 31 ft 10 kts 341°
2026-04-24 10:34 -34.55671 150.78759 30 ft 10 kts 345°
2026-04-24 10:34 -34.55595 150.78741 29 ft 12 kts 350°
2026-04-24 10:35 -34.55525 150.78723 29 ft 5 kts 325°
2026-04-24 10:35 -34.55515 150.78689 30 ft 4 kts 271°
2026-04-24 10:35 -34.55517 150.78644 31 ft 7 kts 266°
2026-04-24 10:35 -34.55469 150.78609 31 ft 12 kts 349°
2026-04-24 10:36 -34.55364 150.78586 32 ft 16 kts 347°
2026-04-24 10:36 -34.55253 150.78558 34 ft 16 kts 344°
2026-04-24 10:36 -34.55180 150.78537 37 ft 3 kts 75°
2026-04-24 10:36 -34.55206 150.78549 36 ft 11 kts 168°
2026-04-24 10:37 -34.55474 150.78609 34 ft 66 kts 171°
2026-04-24 10:37 -34.55989 150.78723 206 ft 81 kts 175°
2026-04-24 10:37 -34.56546 150.78795 503 ft 81 kts 178°
2026-04-24 10:37 -34.57111 150.78816 798 ft 80 kts 173°
2026-04-24 10:38 -34.57549 150.79158 1043 ft 77 kts 114°
2026-04-24 10:38 -34.57628 150.79754 1300 ft 73 kts 85°
2026-04-24 10:38 -34.57604 150.80360 1593 ft 68 kts 74°
2026-04-24 10:38 -34.57260 150.80692 1815 ft 73 kts
2026-04-24 10:39 -34.56769 150.80663 2095 ft 71 kts 358°
2026-04-24 10:39 -34.56264 150.80592 2330 ft 73 kts 349°
2026-04-24 10:39 -34.55949 150.80116 2569 ft 83 kts 280°
2026-04-24 10:39 -34.56057 150.79404 2775 ft 88 kts 261°
2026-04-24 10:40 -34.56209 150.78685 3014 ft 89 kts 255°
2026-04-24 10:40 -34.56416 150.77972 3234 ft 89 kts 252°
2026-04-24 10:40 -34.56646 150.77265 3461 ft 91 kts 246°
2026-04-24 10:40 -34.56979 150.76604 3674 ft 93 kts 243°
2026-04-24 10:41 -34.57241 150.75907 3925 ft 88 kts 247°
2026-04-24 10:41 -34.57465 150.75208 4096 ft 94 kts 258°
2026-04-24 10:41 -34.57640 150.74469 4373 ft 88 kts 257°
2026-04-24 10:41 -34.57775 150.73749 4602 ft 86 kts 264°
2026-04-24 10:42 -34.57891 150.73041 4821 ft 87 kts 264°
2026-04-24 10:42 -34.58004 150.72305 5026 ft 91 kts 263°
2026-04-24 10:42 -34.58138 150.71551 5230 ft 91 kts 263°
2026-04-24 10:42 -34.58267 150.70798 5445 ft 92 kts 263°
2026-04-24 10:43 -34.58404 150.70018 5636 ft 96 kts 260°
2026-04-24 10:43 -34.58574 150.69273 5868 ft 93 kts 256°
2026-04-24 10:43 -34.58735 150.68499 6048 ft 97 kts 259°
2026-04-24 10:43 -34.58913 150.67712 6267 ft 95 kts 255°
2026-04-24 10:44 -34.59145 150.66935 6456 ft 100 kts 249°
2026-04-24 10:44 -34.59357 150.66083 6506 ft 113 kts 257°
2026-04-24 10:44 -34.59557 150.65164 6521 ft 113 kts 258°
2026-04-24 10:44 -34.59739 150.64241 6532 ft 112 kts 258°
2026-04-24 10:45 -34.59893 150.63314 6566 ft 111 kts 263°
2026-04-24 10:45 -34.60012 150.62397 6597 ft 112 kts 259°
2026-04-24 10:45 -34.60194 150.61458 6573 ft 116 kts 258°
2026-04-24 10:45 -34.60375 150.60507 6605 ft 115 kts 260°
2026-04-24 10:46 -34.60533 150.59548 6552 ft 119 kts 262°
2026-04-24 10:46 -34.60682 150.58563 6548 ft 119 kts 261°
2026-04-24 10:46 -34.60830 150.57580 6553 ft 117 kts 262°
2026-04-24 10:46 -34.60953 150.56595 6525 ft 119 kts 266°
2026-04-24 10:47 -34.61053 150.55598 6533 ft 118 kts 264°
2026-04-24 10:47 -34.61154 150.54613 6533 ft 118 kts 266°
2026-04-24 10:47 -34.61253 150.53624 6515 ft 118 kts 266°
2026-04-24 10:47 -34.61355 150.52644 6533 ft 116 kts 265°
2026-04-24 10:48 -34.61465 150.51673 6544 ft 116 kts 263°
2026-04-24 10:48 -34.61590 150.50708 6552 ft 116 kts 264°
2026-04-24 10:48 -34.61705 150.49733 6555 ft 116 kts 264°
2026-04-24 10:48 -34.61814 150.48760 6577 ft 116 kts 264°
2026-04-24 10:49 -34.61937 150.47778 6552 ft 119 kts 263°
2026-04-24 10:49 -34.62076 150.46793 6561 ft 117 kts 262°
2026-04-24 10:49 -34.62215 150.45812 6553 ft 119 kts 261°
2026-04-24 10:49 -34.62370 150.44816 6536 ft 120 kts 261°
2026-04-24 10:50 -34.62535 150.43828 6549 ft 119 kts 260°
2026-04-24 10:50 -34.62693 150.42837 6532 ft 120 kts 260°
2026-04-24 10:50 -34.62850 150.41839 6523 ft 120 kts 262°
2026-04-24 10:50 -34.63003 150.40851 6539 ft 119 kts 261°
2026-04-24 10:51 -34.63144 150.39870 6573 ft 117 kts 262°
2026-04-24 10:51 -34.63272 150.38891 6573 ft 118 kts 261°
2026-04-24 10:51 -34.63415 150.37900 6559 ft 120 kts 263°
2026-04-24 10:51 -34.63557 150.36924 6560 ft 118 kts 259°
2026-04-24 10:52 -34.63722 150.35951 6514 ft 121 kts 261°
2026-04-24 10:52 -34.63894 150.34958 6497 ft 119 kts 259°
2026-04-24 10:52 -34.64076 150.33997 6521 ft 116 kts 258°
2026-04-24 10:52 -34.64252 150.33033 6497 ft 117 kts 260°
2026-04-24 10:53 -34.64421 150.32077 6530 ft 114 kts 259°
2026-04-24 10:53 -34.64606 150.31138 6521 ft 114 kts 258°
2026-04-24 10:53 -34.64771 150.30180 6495 ft 116 kts 261°
2026-04-24 10:53 -34.64921 150.29235 6519 ft 113 kts 261°
2026-04-24 10:54 -34.65079 150.28298 6521 ft 114 kts 259°
2026-04-24 10:54 -34.65259 150.27354 6532 ft 115 kts 258°
2026-04-24 10:54 -34.65432 150.26420 6562 ft 114 kts 260°
2026-04-24 10:54 -34.65591 150.25479 6573 ft 114 kts 259°
2026-04-24 10:55 -34.65758 150.24540 6554 ft 116 kts 260°
2026-04-24 10:55 -34.65917 150.23585 6577 ft 115 kts 259°
2026-04-24 10:55 -34.66094 150.22636 6587 ft 115 kts 258°
2026-04-24 10:55 -34.66303 150.21684 6588 ft 116 kts 256°
2026-04-24 10:56 -34.66501 150.20733 6582 ft 117 kts 258°
2026-04-24 10:56 -34.66687 150.19761 6556 ft 119 kts 258°
2026-04-24 10:56 -34.66891 150.18783 6546 ft 119 kts 257°
2026-04-24 10:56 -34.67091 150.17805 6540 ft 119 kts 258°
2026-04-24 10:57 -34.67218 150.17156 6533 ft 119 kts 258°
2026-04-24 10:57 -34.67423 150.16172 6525 ft 120 kts 257°
2026-04-24 10:57 -34.67702 150.14875 6503 ft 120 kts 256°
2026-04-24 10:57 -34.67908 150.13901 6509 ft 119 kts 257°
2026-04-24 10:58 -34.68118 150.12934 6512 ft 117 kts 254°
2026-04-24 10:58 -34.68332 150.11986 6524 ft 115 kts 257°
2026-04-24 10:58 -34.68458 150.11354 6536 ft 116 kts 257°
2026-04-24 10:58 -34.68734 150.10086 6555 ft 116 kts 255°
2026-04-24 10:59 -34.68878 150.09462 6550 ft 116 kts 254°
2026-04-24 10:59 -34.69129 150.08527 6562 ft 116 kts 252°
2026-04-24 10:59 -34.69357 150.07587 6562 ft 117 kts 256°
2026-04-24 10:59 -34.69547 150.06632 6561 ft 117 kts 255°
2026-04-24 11:00 -34.69792 150.05694 6577 ft 116 kts 252°
2026-04-24 11:00 -34.70046 150.04763 6581 ft 117 kts 251°
2026-04-24 11:00 -34.70306 150.03829 6589 ft 116 kts 253°
2026-04-24 11:00 -34.70523 150.02882 6592 ft 117 kts 258°
2026-04-24 11:01 -34.70687 150.01921 6603 ft 116 kts 254°
2026-04-24 11:01 -34.71089 150.01067 6577 ft 118 kts 224°
2026-04-24 11:01 -34.71713 150.00417 6534 ft 119 kts 218°
2026-04-24 11:01 -34.72346 149.99762 6524 ft 118 kts 218°
2026-04-24 11:02 -34.72979 149.99136 6541 ft 116 kts 215°
2026-04-24 11:02 -34.73610 149.98560 6560 ft 115 kts 214°
2026-04-24 11:02 -34.74247 149.97964 6560 ft 116 kts 216°
2026-04-24 11:02 -34.74858 149.97328 6575 ft 115 kts 220°
2026-04-24 11:03 -34.75430 149.96641 6571 ft 116 kts 223°
2026-04-24 11:03 -34.75995 149.95936 6581 ft 116 kts 224°
2026-04-24 11:03 -34.76541 149.95215 6578 ft 117 kts 227°
2026-04-24 11:03 -34.77075 149.94474 6588 ft 116 kts 226°
2026-04-24 11:04 -34.77627 149.93757 6585 ft 117 kts 225°
2026-04-24 11:04 -34.78185 149.93033 6575 ft 119 kts 226°
2026-04-24 11:04 -34.78720 149.92286 6608 ft 115 kts 228°
2026-04-24 11:04 -34.79261 149.91552 6589 ft 118 kts 221°
2026-04-24 11:05 -34.79879 149.90934 6591 ft 115 kts 214°
2026-04-24 11:05 -34.80543 149.90379 6592 ft 114 kts 210°
2026-04-24 11:05 -34.81205 149.89844 6582 ft 116 kts 211°
2026-04-24 11:05 -34.81864 149.89305 6603 ft 114 kts 210°
2026-04-24 11:06 -34.82538 149.88790 6606 ft 115 kts 207°
2026-04-24 11:06 -34.83228 149.88319 6631 ft 112 kts 206°
2026-04-24 11:06 -34.83887 149.87790 6613 ft 116 kts 209°
2026-04-24 11:06 -34.84540 149.87186 6567 ft 119 kts 219°
2026-04-24 11:07 -34.85790 149.85863 6499 ft 120 kts 219°
2026-04-24 11:07 -34.86414 149.85193 6492 ft 119 kts 219°
2026-04-24 11:07 -34.87031 149.84517 6476 ft 118 kts 220°
2026-04-24 11:08 -34.87637 149.83840 6453 ft 120 kts 220°
2026-04-24 11:08 -34.88185 149.83101 6438 ft 119 kts 244°
2026-04-24 11:08 -34.88293 149.82126 6433 ft 115 kts 280°
2026-04-24 11:08 -34.87986 149.81268 6456 ft 110 kts 303°
2026-04-24 11:09 -34.87601 149.80440 6450 ft 110 kts 306°
2026-04-24 11:09 -34.87177 149.79690 6490 ft 108 kts 305°
2026-04-24 11:09 -34.86782 149.78896 6459 ft 111 kts 306°
2026-04-24 11:09 -34.86378 149.78118 6523 ft 106 kts 305°
2026-04-24 11:10 -34.86002 149.77337 6513 ft 108 kts 307°
2026-04-24 11:10 -34.85543 149.76614 6519 ft 108 kts 315°
2026-04-24 11:10 -34.85043 149.75925 6506 ft 111 kts 318°
2026-04-24 11:10 -34.84491 149.75288 6466 ft 110 kts 323°
2026-04-24 11:11 -34.83917 149.74667 6305 ft 110 kts 323°
2026-04-24 11:11 -34.83383 149.74004 6176 ft 111 kts 318°
2026-04-24 11:11 -34.82861 149.73321 6114 ft 104 kts 317°
2026-04-24 11:11 -34.82383 149.72662 5974 ft 109 kts 314°
2026-04-24 11:12 -34.81902 149.71937 5894 ft 106 kts 313°
2026-04-24 11:12 -34.81445 149.71236 5772 ft 108 kts 315°
2026-04-24 11:12 -34.80890 149.70683 5676 ft 98 kts 345°
2026-04-24 11:12 -34.80288 149.70635 5558 ft 81 kts
2026-04-24 11:13 -34.79907 149.70153 5371 ft 90 kts 276°
2026-04-24 11:13 -34.80258 149.69549 5171 ft 93 kts 199°
2026-04-24 11:13 -34.80850 149.69669 4937 ft 87 kts 133°
2026-04-24 11:13 -34.81167 149.70309 4633 ft 89 kts 101°
2026-04-24 11:14 -34.81148 149.70981 4415 ft 79 kts 58°
2026-04-24 11:14 -34.80719 149.71359 4210 ft 78 kts 17°
2026-04-24 11:14 -34.80181 149.71452 4007 ft 76 kts 12°
2026-04-24 11:14 -34.79730 149.71752 3776 ft 74 kts 42°
2026-04-24 11:15 -34.79320 149.72160 3534 ft 78 kts 40°
2026-04-24 11:15 -34.78857 149.72448 3307 ft 79 kts 360°
2026-04-24 11:15 -34.78378 149.72039 3227 ft 91 kts 302°
2026-04-24 11:15 -34.78353 149.71258 3215 ft 103 kts 246°
2026-04-24 11:16 -34.78869 149.70670 3225 ft 106 kts 202°
2026-04-24 11:16 -34.79597 149.70708 3160 ft 108 kts 155°
2026-04-24 11:16 -34.80289 149.71122 3049 ft 109 kts 161°
2026-04-24 11:16 -34.80965 149.70965 3107 ft 95 kts 218°
2026-04-24 11:17 -34.81358 149.70438 3055 ft 81 kts 230°
2026-04-24 11:17 -34.81833 149.70190 2899 ft 77 kts 168°
2026-04-24 11:17 -34.82160 149.70609 2773 ft 70 kts 105°
2026-04-24 11:17 -34.82119 149.71187 2559 ft 74 kts 50°
2026-04-24 11:18 -34.81755 149.71603 2380 ft 69 kts 47°
2026-04-24 11:18 -34.81438 149.72025 2227 ft 66 kts 47°
2026-04-24 11:18 -34.81149 149.72410 2149 ft 53 kts 48°
2026-04-24 11:18 -34.80937 149.72691 2136 ft 39 kts 48°
2026-04-24 11:19 -34.80774 149.72905 2126 ft 31 kts 47°
2026-04-24 11:19 -34.80651 149.73067 2118 ft 20 kts 48°
2026-04-24 11:19 -34.80581 149.73159 2115 ft 11 kts 47°
2026-04-24 11:19 -34.80576 149.73228 2113 ft 9 kts 129°
2026-04-24 11:20 -34.80627 149.73286 2111 ft 10 kts 139°
2026-04-24 11:20 -34.80662 149.73290 2112 ft 4 kts 231°
2026-04-24 11:20 -34.80679 149.73269 2113 ft 4 kts 218°
2026-04-24 11:20 -34.80711 149.73289 2113 ft 5 kts 122°
2026-04-24 11:21 -34.80717 149.73292 2113 ft 0 kts 194°